DECAYED

STARLINK-30995, 58474 (Decayed)

Orbit data source: Space-Track

STARLINK-30995, 58474 was a payload satellite owned by SpaceX/Seattle (US) in LEO that was launched on Sun, 03 Dec 2023 UTC via an FALCON 9 launch vehicle from the Air Force Eastern Test Range (AFETR). Payload-class satellites include a variety of spacecraft equipped with specific instruments for various scientific and technological missions. These include communications satellites like Starlink; space stations such as the ISS; scientific satellites like the Hubble; Earth observation satellites from companies like Planet Labs, Umbra, and HawkEye 360; GPS; miniature CubeSats for education and research; and military/defense satellites.

Not visible in the next 10 days
Identifier
58474, 2023-186B
Orbit
Decayed
Country
Flag of USUS
Related business
Manufacturer
SpaceX/Seattle
Mission
Decayed Commercial Communications
Bus & Motor
STARLINK V2M, Unknown motor
Mass
730 kg wet, ~700 kg dry
Launch date (UTC)
2023-12-03 (3 years ago)
Launch vehicle
FALCON 9
Launch site
Air Force Eastern Test Range (AFETR)
Object type
Payload
Rocket body
Debris
Shape & HBR
Box + 2 Pan, 17.7 m
Radar Cross Section
33.884 m², Large (>1 m²)

Expand to show TLE details & history
Last TLE update: 3 months ago

TLE from 3 months ago
0 STARLINK-30995
1 58474U 23186B   26074.63962885  .05245317  94479-1  63744-2 0  9991
2 58474  42.9734 181.1554 0016973   9.5713 350.5490 16.13428816129373
Epoch: 2026-03-15T15:21Z
TLE epoch observation values (Epoch: 2026-03-15T15:21:03.932Z)
Latitude
-0.00004°
Longitude
137.6454°
Altitude
226.144 km
Speed
7.779 km/s
True Right ascension
12h 04m 37s
True Declination
0° 00' 00"
Sunlit
Object was in full shadow at epoch
Visualization orbit readout
Latitude
Unknown
Longitude
Unknown
Altitude
Unknown
Speed
Unknown
Apparent Right ascension
Unknown
Apparent Declination
Unknown
Sunlit
N/A
Visualization observer readout
Local Sidereal Time
23:07:40
Azimuth
Unknown
Elevation
Unknown
Doppler factor
Unknown
Orbital elements
Apogee altitude
250.708 km
Perigee altitude
228.243 km
Semi-major axis
6,617.613 km
Eccentricity
0.0017
Inclination
42.9734°
RAAN
181.1554°
Arg. of periapsis
9.5713°
True anomaly
350.517°
Mean anomaly
350.549°
Eccentric anomaly
350.533°
Mean motion
4.03173 °/min
Orbital period
89.29 mins
BSTAR
0.0063744
Loading maneuver chart data...
Computing Atmospheric mass density...
Loading historical data...
Loading historical data...
Loading historical data...
Loading historical data...
Loading historical data...
Loading historical data...
Loading historical data...

Documentation

Showing up to 5 results
|